SCP
0 0 0 0 0 0 0 0 0 0 0 0 0 0 0 0 0 0 0 0 0 0 0 -0 0 0 -0 -0 -0 -0 0 0 0 0 0 0 0 0 -0 0 0 -0 0 0
0 0 0 0 0 0 0 0 0 0 0 0 0 0 0 0 0 0 0 0 0 0 0 0 0 0 0 0 0 0 0 0 0 0 -0 0 0 0 -0 0 -0 -0 0 0
0 0 0 0 0 0 0 0 0 0 0 0 0 0 0 0 0 0 0 -0 0 0 0 0 0 0 0 0 0 0 0 0 0 -0 -0 -0 0 0 0 0 0 0 -0 0
0 0 0 0 0 0 0 0 0 0 0 0 0 0 0 0 0 0 0 0 0 0 0 0 0 0 0 0 0 0 0 0 0 0 0 0 0 0 0 0 0 0 -0 0
0 0 0 0 0 0 0 0 0 0 0 0 0 0 0 0 0 0 0 0 0 0 0 0 0 0 0 0 0 0 0 0 0 0 0 0 0 0 0 0 0 0 0 0
0 0 0 0 0 0 0 0 0 0 0 0 0 0 0 0 0 0 0 0 0 0 0 0 0 0 0 0 0 0 0 0 0 0 0 0 0 0 0 0 0 0 0 0
0 0 0 0 0 0 0 0 0 0 0 0 0 0 0 0 0 0 0 0 0 0 0 0 0 0 0 0 0 0 0 0 0 0 0 0 -0 0 0 -0 0 0 0 0
0 0 0 0 0 0 0 0 0 0 0 0 0 0 0 0 0 0 0 0 0 0 0 0 0 0 0 0 0 0 0 0 0 0 0 0 0 0 0 0 0 0 1 1
0 0 0 0 0 0 0 0 0 0 -0 -0 0 0 0 0 0 0 0 0 0 0 0 0 0 0 0 0 0 0 0 0 0 0 0 0 0 0 0 0 0 0 0 1
0 0 0 0 0 0 0 0 0 0 0 -0 0 0 0 0 0 0 0 0 0 0 0 0 0 0 0 0 0 0 0 0 0 0 0 0 0 0 0 0 1 0 0 0
0 0 0 0 0 0 0 0 0 0 0 -0 0 0 0 0 0 0 0 0 0 0 0 0 0 0 0 0 0 0 0 0 0 0 0 0 0 0 0 1 1 1 1 0
0 0 0 0 0 0 0 0 0 0 0 0 0 0 0 0 0 0 0 0 0 0 0 0 0 0 0 0 0 0 0 0 0 0 0 0 0 0 0 0 1 0 0 0
0 0 0 0 0 0 0 0 0 0 -0 0 0 0 0 0 0 0 0 0 0 0 0 0 0 0 0 0 0 0 0 0 0 0 0 0 0 0 0 0 0 0 0 1
0 0 0 0 0 0 0 0 0 0 0 0 0 0 0 0 0 0 0 0 0 0 0 1 0 0 0 0 0 0 0 0 0 1 1 1 1 1 1 0 0 0 2 2
0 0 0 0 0 0 0 0 0 0 0 0 0 0 0 0 0 -0 0 0 0 0 0 0 0 0 0 0 0 0 0 1 1 1 1 1 1 0 0 0 0 1 2 2
0 0 0 0 0 0 0 0 0 0 0 0 0 0 0 0 0 0 0 0 0 0 0 0 0 0 0 0 0 0 0 0 1 0 0 0 0 0 0 0 0 2 1 1
0 0 0 0 0 0 0 0 0 0 0 0 0 1 1 0 0 0 0 0 0 0 0 0 0 0 0 0 0 0 0 0 0 0 0 0 0 1 0 0 1 1 0 1
0 0 0 0 0 0 0 0 0 0 0 0 0 0 0 0 0 0 0 0 0 0 0 0 0 0 0 0 0 1 0 0 0 0 0 0 0 0 0 0 1 0 0 0
0 0 0 0 0 0 0 0 0 0 0 0 0 0 0 -0 0 0 0 0 0 0 0 0 0 0 0 0 1 1 0 1 0 0 0 0 0 0 0 0 0 0 0 0
0 0 0 0 0 0 0 0 0 0 0 0 0 0 0 0 0 0 0 0 0 0 0 0 0 0 1 1 1 1 0 0 0 0 1 1 1 1 0 0 0 0 0 0
0 0 0 0 0 0 0 0 0 0 0 0 0 0 0 0 0 0 0 0 0 0 0 0 0 0 2 1 1 1 0 0 1 0 1 0 0 0 0 0 0 0 0 0
0 0 0 0 0 0 0 0 0 0 0 0 0 0 0 0 0 1 0 0 0 0 0 0 0 1 2 1 1 1 1 0 0 0 0 0 0 0 0 0 0 0 0 0
0 0 0 0 0 0 0 0 0 0 0 0 0 0 0 0 0 0 0 0 0 0 0 0 1 2 2 1 1 1 0 -0 0 0 0 0 0 0 0 0 0 0 0 0
0 0 0 0 0 0 0 1 0 0 0 0 0 1 0 0 0 0 0 0 0 1 0 1 1 0 1 1 1 0 0 0 0 0 0 0 0 0 0 0 0 0 0 0
0 0 0 0 0 0 0 0 1 1 1 1 1 0 0 0 0 0 0 0 0 1 1 1 1 1 0 0 -0 -0 0 0 0 0 0 0 0 0 0 0 0 0 0 0
0 0 0 0 0 0 0 1 0 1 1 1 1 0 1 0 0 0 0 0 0 0 0 0 0 0 0 0 -0 -0 -0 0 0 0 0 0 0 0 0 0 0 0 0 0
0 0 0 0 0 0 0 0 0 1 0 0 0 0 0 0 0 0 0 0 0 0 0 1 1 0 0 0 -0 -0 -0 -0 0 0 0 0 0 0 0 0 0 0 0 0
Wind_Speed_500mb
31 25 25 25 28 25 19 15 7 25 35 16 15 18 13 14 43 66 23 12 13 16 9 20 20 17 17 42 32 12 18 2 7 15 11 16 8 12 6 10 10 10 13 4
27 22 23 21 21 24 22 10 24 21 31 10 17 21 33 45 40 39 11 11 12 26 19 11 16 16 14 29 12 4 5 2 6 19 14 4 10 7 5 5 5 6 6 6
21 22 24 22 18 17 18 9 7 24 34 35 26 24 28 32 51 41 39 12 17 22 22 17 14 14 10 40 16 21 14 5 8 13 12 5 11 14 12 10 3 9 2 8
19 21 23 22 17 15 15 8 11 21 9 18 23 29 27 34 36 20 24 18 24 19 15 16 6 14 19 17 12 8 7 4 13 19 16 14 1 11 10 13 11 7 12 11
19 20 21 20 18 16 17 12 14 27 41 37 29 23 35 36 41 17 13 15 32 21 15 15 12 15 14 12 8 5 4 6 7 15 16 16 12 18 18 7 8 9 5 13
19 22 22 17 16 14 5 17 18 21 22 18 21 19 30 34 29 28 41 27 21 16 22 30 39 34 34 28 19 15 7 8 2 11 15 12 9 13 14 4 6 7 4 9
19 21 21 18 18 17 17 23 22 15 15 17 20 42 38 41 29 11 35 45 17 40 41 38 24 35 11 37 22 29 11 8 6 7 8 4 13 18 17 38 28 27 23 25
18 19 21 20 20 22 21 20 9 15 13 28 32 45 37 54 49 12 16 18 43 46 21 8 7 8 8 9 30 18 16 9 2 8 2 8 20 11 12 11 16 22 22 22
20 24 24 21 22 23 24 18 10 22 16 9 33 46 41 21 18 11 13 8 6 5 2 6 8 7 7 3 7 13 14 8 9 5 4 3 4 19 29 13 8 21 29 20
23 22 23 22 23 23 23 9 6 16 25 31 26 17 28 29 26 11 12 6 3 7 2 4 5 6 4 4 12 4 6 6 6 4 5 3 11 22 22 5 4 21 22 19
25 25 23 23 22 22 20 12 4 22 36 52 50 40 49 41 42 10 24 7 2 4 1 3 6 6 12 4 13 17 12 9 1 2 1 5 21 13 11 4 20 24 20 21
23 25 25 23 20 20 18 21 12 19 25 38 31 36 41 35 34 47 20 14 8 13 3 4 4 4 6 9 2 5 6 11 9 11 10 12 25 35 35 29 24 20 21 26
24 24 26 24 20 19 19 23 16 18 22 42 43 45 26 19 24 24 14 10 26 22 12 1 1 9 3 5 5 8 7 18 8 11 10 15 25 37 26 14 11 15 22 24
26 23 22 24 21 18 20 25 14 10 17 12 13 2 46 37 38 17 7 20 33 26 14 7 5 7 11 4 6 9 7 2 8 10 12 38 31 21 13 8 10 9 17 23
25 25 23 20 21 18 21 25 15 10 6 11 32 18 43 26 28 17 12 6 30 36 13 6 4 8 11 5 8 5 8 2 2 6 17 20 7 5 5 8 12 2 15 20
24 24 23 19 16 13 21 3 4 14 13 11 7 19 16 28 34 30 25 13 11 37 36 6 8 10 7 5 6 17 44 38 30 11 18 11 2 3 5 5 9 21 24 18
25 23 20 16 15 23 14 9 4 11 21 9 10 9 12 17 34 30 24 22 31 28 13 8 11 9 10 5 2 20 35 25 17 11 5 5 5 10 6 5 9 15 17 20
24 20 16 13 9 17 16 12 10 12 15 12 8 4 18 9 14 20 31 27 23 10 4 5 6 8 7 3 21 33 25 14 7 7 1 7 10 1 4 11 26 32 38 35
17 13 9 6 9 8 13 13 11 11 14 13 8 12 10 45 34 22 22 20 6 15 4 4 4 7 7 14 33 23 18 10 15 5 5 14 20 24 5 4 18 20 25 21
12 5 2 6 10 19 12 9 5 6 11 12 8 4 7 9 20 10 13 10 9 6 10 15 4 5 27 41 39 29 20 14 5 4 5 22 37 37 23 15 13 15 23 7
2 4 3 4 8 6 7 8 12 16 10 19 15 13 5 12 5 3 18 6 7 8 10 11 8 7 14 43 41 30 25 18 32 29 28 14 9 16 25 40 44 31 24 27
2 7 3 4 4 5 8 8 8 10 8 18 23 16 13 12 14 11 14 6 7 9 25 9 8 6 53 43 38 34 28 38 35 33 40 31 25 29 37 45 43 35 35 23
4 3 3 6 8 10 9 14 7 7 11 17 34 12 17 15 32 9 8 9 2 18 6 8 3 36 54 50 41 43 43 36 30 34 35 35 40 43 44 54 45 37 38 32
5 8 6 6 7 10 4 11 7 18 15 20 31 24 17 15 3 7 12 8 8 6 10 6 8 44 45 44 53 54 56 44 37 33 35 38 42 46 47 51 49 47 46 40
4 6 7 11 19 34 41 36 30 16 24 14 6 21 23 8 10 1 5 3 5 11 5 8 34 50 53 30 46 55 50 42 38 27 28 29 34 43 49 45 43 38 32 22
6 10 8 14 25 16 22 23 16 22 21 13 9 8 3 7 7 4 4 5 3 3 6 36 45 57 65 62 48 47 45 39 33 36 38 37 37 34 32 28 25 25 24 23
8 10 17 25 22 20 27 36 27 26 14 7 11 9 10 8 5 9 5 1 4 11 33 40 49 53 60 56 50 47 44 47 42 35 31 38 34 27 23 22 19 18 19 17
Wind_Direction_500mb
328 319 311 312 313 310 310 317 277 158 157 183 222 239 253 280 287 296 289 341 320 291 244 188 205 199 216 213 203 221 202 64 297 258 160 134 191 235 223 132 255 206 163 197
342 338 325 323 322 329 341 308 282 254 203 220 233 249 251 259 269 277 278 278 288 311 303 203 163 226 42 144 85 29 22 53 339 328 346 168 180 214 301 352 65 285 96 216
336 329 329 334 326 329 333 309 281 238 230 229 258 251 245 244 262 264 269 301 276 294 303 315 183 166 78 80 100 64 33 348 173 216 237 271 159 200 202 154 64 283 351 222
326 320 323 329 322 321 325 244 258 351 296 227 235 256 278 278 249 228 275 302 286 264 285 308 241 131 110 99 92 63 93 271 298 294 293 325 310 223 187 181 212 151 244 151
320 316 313 323 327 320 299 281 345 324 293 285 280 254 251 264 275 217 215 238 274 262 273 236 292 132 138 150 115 141 263 250 291 298 317 335 349 341 335 282 337 229 126 296
312 316 303 317 332 341 311 323 297 324 291 292 281 243 242 254 264 204 233 225 257 264 268 281 283 305 155 156 145 173 204 181 215 276 308 312 330 274 269 195 313 309 18 339
307 309 307 307 314 320 319 310 324 286 291 316 318 317 303 254 260 264 226 208 234 253 267 286 295 284 234 163 160 168 192 182 156 218 37 347 253 4 65 68 42 30 46 39
290 296 303 308 303 304 299 304 298 312 298 310 301 343 330 335 308 229 274 222 207 237 251 301 267 304 356 139 167 185 177 159 145 127 205 286 320 28 38 68 31 35 46 26
278 285 296 299 299 295 286 280 270 278 286 238 336 320 349 327 315 175 263 283 126 133 192 234 196 184 137 125 82 25 356 77 114 108 136 242 26 14 14 17 45 35 43 29
282 280 286 295 298 295 291 255 267 322 292 293 328 322 315 320 331 291 217 305 10 285 320 248 173 242 38 191 138 173 304 352 125 332 197 153 346 9 325 54 211 43 47 10
284 280 280 287 294 294 291 252 182 324 287 286 283 284 295 316 344 336 342 346 256 297 285 261 212 146 231 236 193 182 158 123 331 267 141 116 14 34 81 170 46 29 24 345
295 280 277 278 285 293 289 264 248 304 285 269 270 255 257 271 277 305 320 328 302 224 239 263 26 335 42 115 50 75 125 160 169 124 210 232 102 102 78 64 41 13 344 325
317 300 275 273 278 287 288 277 316 329 302 301 265 253 253 259 264 272 295 11 347 335 0 285 235 73 95 80 359 89 69 22 102 94 28 60 66 89 85 61 357 338 323 323
318 315 299 273 266 276 279 280 265 280 299 273 287 267 278 276 212 230 269 339 333 332 335 17 89 99 48 50 142 102 142 345 112 106 30 85 73 70 57 16 326 301 10 39
308 312 307 283 258 272 278 278 260 224 278 299 304 282 228 216 214 207 212 314 353 352 318 19 47 55 45 45 60 16 82 104 46 134 114 97 77 80 108 302 302 360 103 78
304 305 304 291 265 275 290 110 71 189 255 269 278 305 245 227 197 208 190 181 1 356 298 289 122 70 92 70 80 41 83 76 92 106 97 110 112 221 72 314 311 130 90 88
298 296 296 284 261 239 258 248 187 231 218 259 275 297 291 214 185 189 188 167 222 262 321 354 85 62 64 40 98 153 111 100 86 94 149 214 293 96 56 327 151 98 87 101
294 287 284 263 273 247 261 254 281 239 216 249 277 330 345 240 158 190 190 185 197 228 276 304 81 87 71 152 124 96 90 76 75 110 198 344 216 114 35 337 128 109 79 43
292 284 266 177 246 256 234 246 268 227 230 301 269 146 204 228 205 184 180 164 157 184 176 264 219 167 173 208 120 119 110 101 131 83 300 303 33 197 141 136 130 147 118 126
280 227 138 192 226 252 288 242 212 216 218 231 251 215 269 332 220 146 157 164 163 181 195 215 201 244 153 149 144 150 144 139 134 209 60 115 54 50 42 50 63 118 158 125
116 272 237 225 278 247 236 248 217 196 220 207 222 187 251 25 317 155 179 186 181 185 199 166 191 173 143 144 154 158 153 140 93 99 95 110 162 86 86 90 99 95 138 167
329 294 135 116 265 259 252 208 202 213 233 200 182 161 146 31 339 317 12 231 206 208 145 164 194 191 154 152 147 147 137 129 117 110 109 113 125 88 86 90 108 115 156 167
343 335 267 194 200 246 225 186 197 214 227 191 168 114 150 117 221 224 30 338 53 299 150 177 117 141 148 145 144 120 128 125 123 101 95 96 95 94 97 108 109 111 112 110
262 211 249 241 226 235 246 316 301 246 259 239 175 132 155 114 356 14 35 336 272 283 177 126 144 154 150 145 131 136 115 113 112 108 99 101 105 105 107 109 115 115 111 112
305 256 245 220 263 302 290 287 286 316 1 17 293 135 172 109 107 191 282 218 31 299 36 134 134 141 137 152 118 118 117 119 111 110 117 117 115 110 108 111 111 109 111 109
248 253 260 275 276 298 336 355 349 353 14 22 15 22 87 105 119 121 190 253 115 344 114 121 131 134 135 133 134 124 120 114 117 116 118 121 118 113 110 109 100 97 98 101
216 245 265 275 281 293 314 332 339 5 47 65 311 307 68 129 78 158 202 212 195 99 116 123 128 131 122 126 124 121 125 132 139 140 127 115 110 104 102 100 94 90 90 90
Wind_Speed_850mb
31 25 25 25 28 25 19 15 7 25 35 16 15 18 13 14 43 66 23 12 13 16 9 20 20 17 17 42 32 12 18 2 7 15 11 16 8 12 6 10 10 10 13 4
27 22 23 21 21 24 22 10 24 21 31 10 17 21 33 45 40 39 11 11 12 26 19 11 16 16 14 29 12 4 5 2 6 19 14 4 10 7 5 5 5 6 6 6
21 22 24 22 18 17 18 9 7 24 34 35 26 24 28 32 51 41 39 12 17 22 22 17 14 14 10 40 16 21 14 5 8 13 12 5 11 14 12 10 3 9 2 8
19 21 23 22 17 15 15 8 11 21 9 18 23 29 27 34 36 20 24 18 24 19 15 16 6 14 19 17 12 8 7 4 13 19 16 14 1 11 10 13 11 7 12 11
19 20 21 20 18 16 17 12 14 27 41 37 29 23 35 36 41 17 13 15 32 21 15 15 12 15 14 12 8 5 4 6 7 15 16 16 12 18 18 7 8 9 5 13
19 22 22 17 16 14 5 17 18 21 22 18 21 19 30 34 29 28 41 27 21 16 22 30 39 34 34 28 19 15 7 8 2 11 15 12 9 13 14 4 6 7 4 9
19 21 21 18 18 17 17 23 22 15 15 17 20 42 38 41 29 11 35 45 17 40 41 38 24 35 11 37 22 29 11 8 6 7 8 4 13 18 17 38 28 27 23 25
18 19 21 20 20 22 21 20 9 15 13 28 32 45 37 54 49 12 16 18 43 46 21 8 7 8 8 9 30 18 16 9 2 8 2 8 20 11 12 11 16 22 22 22
20 24 24 21 22 23 24 18 10 22 16 9 33 46 41 21 18 11 13 8 6 5 2 6 8 7 7 3 7 13 14 8 9 5 4 3 4 19 29 13 8 21 29 20
23 22 23 22 23 23 23 9 6 16 25 31 26 17 28 29 26 11 12 6 3 7 2 4 5 6 4 4 12 4 6 6 6 4 5 3 11 22 22 5 4 21 22 19
25 25 23 23 22 22 20 12 4 22 36 52 50 40 49 41 42 10 24 7 2 4 1 3 6 6 12 4 13 17 12 9 1 2 1 5 21 13 11 4 20 24 20 21
23 25 25 23 20 20 18 21 12 19 25 38 31 36 41 35 34 47 20 14 8 13 3 4 4 4 6 9 2 5 6 11 9 11 10 12 25 35 35 29 24 20 21 26
24 24 26 24 20 19 19 23 16 18 22 42 43 45 26 19 24 24 14 10 26 22 12 1 1 9 3 5 5 8 7 18 8 11 10 15 25 37 26 14 11 15 22 24
26 23 22 24 21 18 20 25 14 10 17 12 13 2 46 37 38 17 7 20 33 26 14 7 5 7 11 4 6 9 7 2 8 10 12 38 31 21 13 8 10 9 17 23
25 25 23 20 21 18 21 25 15 10 6 11 32 18 43 26 28 17 12 6 30 36 13 6 4 8 11 5 8 5 8 2 2 6 17 20 7 5 5 8 12 2 15 20
24 24 23 19 16 13 21 3 4 14 13 11 7 19 16 28 34 30 25 13 11 37 36 6 8 10 7 5 6 17 44 38 30 11 18 11 2 3 5 5 9 21 24 18
25 23 20 16 15 23 14 9 4 11 21 9 10 9 12 17 34 30 24 22 31 28 13 8 11 9 10 5 2 20 35 25 17 11 5 5 5 10 6 5 9 15 17 20
24 20 16 13 9 17 16 12 10 12 15 12 8 4 18 9 14 20 31 27 23 10 4 5 6 8 7 3 21 33 25 14 7 7 1 7 10 1 4 11 26 32 38 35
17 13 9 6 9 8 13 13 11 11 14 13 8 12 10 45 34 22 22 20 6 15 4 4 4 7 7 14 33 23 18 10 15 5 5 14 20 24 5 4 18 20 25 21
12 5 2 6 10 19 12 9 5 6 11 12 8 4 7 9 20 10 13 10 9 6 10 15 4 5 27 41 39 29 20 14 5 4 5 22 37 37 23 15 13 15 23 7
2 4 3 4 8 6 7 8 12 16 10 19 15 13 5 12 5 3 18 6 7 8 10 11 8 7 14 43 41 30 25 18 32 29 28 14 9 16 25 40 44 31 24 27
2 7 3 4 4 5 8 8 8 10 8 18 23 16 13 12 14 11 14 6 7 9 25 9 8 6 53 43 38 34 28 38 35 33 40 31 25 29 37 45 43 35 35 23
4 3 3 6 8 10 9 14 7 7 11 17 34 12 17 15 32 9 8 9 2 18 6 8 3 36 54 50 41 43 43 36 30 34 35 35 40 43 44 54 45 37 38 32
5 8 6 6 7 10 4 11 7 18 15 20 31 24 17 15 3 7 12 8 8 6 10 6 8 44 45 44 53 54 56 44 37 33 35 38 42 46 47 51 49 47 46 40
4 6 7 11 19 34 41 36 30 16 24 14 6 21 23 8 10 1 5 3 5 11 5 8 34 50 53 30 46 55 50 42 38 27 28 29 34 43 49 45 43 38 32 22
6 10 8 14 25 16 22 23 16 22 21 13 9 8 3 7 7 4 4 5 3 3 6 36 45 57 65 62 48 47 45 39 33 36 38 37 37 34 32 28 25 25 24 23
8 10 17 25 22 20 27 36 27 26 14 7 11 9 10 8 5 9 5 1 4 11 33 40 49 53 60 56 50 47 44 47 42 35 31 38 34 27 23 22 19 18 19 17
Wind_Direction_850mb
328 319 311 312 313 310 310 317 277 158 157 183 222 239 253 280 287 296 289 341 320 291 244 188 205 199 216 213 203 221 202 64 297 258 160 134 191 235 223 132 255 206 163 197
342 338 325 323 322 329 341 308 282 254 203 220 233 249 251 259 269 277 278 278 288 311 303 203 163 226 42 144 85 29 22 53 339 328 346 168 180 214 301 352 65 285 96 216
336 329 329 334 326 329 333 309 281 238 230 229 258 251 245 244 262 264 269 301 276 294 303 315 183 166 78 80 100 64 33 348 173 216 237 271 159 200 202 154 64 283 351 222
326 320 323 329 322 321 325 244 258 351 296 227 235 256 278 278 249 228 275 302 286 264 285 308 241 131 110 99 92 63 93 271 298 294 293 325 310 223 187 181 212 151 244 151
320 316 313 323 327 320 299 281 345 324 293 285 280 254 251 264 275 217 215 238 274 262 273 236 292 132 138 150 115 141 263 250 291 298 317 335 349 341 335 282 337 229 126 296
312 316 303 317 332 341 311 323 297 324 291 292 281 243 242 254 264 204 233 225 257 264 268 281 283 305 155 156 145 173 204 181 215 276 308 312 330 274 269 195 313 309 18 339
307 309 307 307 314 320 319 310 324 286 291 316 318 317 303 254 260 264 226 208 234 253 267 286 295 284 234 163 160 168 192 182 156 218 37 347 253 4 65 68 42 30 46 39
290 296 303 308 303 304 299 304 298 312 298 310 301 343 330 335 308 229 274 222 207 237 251 301 267 304 356 139 167 185 177 159 145 127 205 286 320 28 38 68 31 35 46 26
278 285 296 299 299 295 286 280 270 278 286 238 336 320 349 327 315 175 263 283 126 133 192 234 196 184 137 125 82 25 356 77 114 108 136 242 26 14 14 17 45 35 43 29
282 280 286 295 298 295 291 255 267 322 292 293 328 322 315 320 331 291 217 305 10 285 320 248 173 242 38 191 138 173 304 352 125 332 197 153 346 9 325 54 211 43 47 10
284 280 280 287 294 294 291 252 182 324 287 286 283 284 295 316 344 336 342 346 256 297 285 261 212 146 231 236 193 182 158 123 331 267 141 116 14 34 81 170 46 29 24 345
295 280 277 278 285 293 289 264 248 304 285 269 270 255 257 271 277 305 320 328 302 224 239 263 26 335 42 115 50 75 125 160 169 124 210 232 102 102 78 64 41 13 344 325
317 300 275 273 278 287 288 277 316 329 302 301 265 253 253 259 264 272 295 11 347 335 0 285 235 73 95 80 359 89 69 22 102 94 28 60 66 89 85 61 357 338 323 323
318 315 299 273 266 276 279 280 265 280 299 273 287 267 278 276 212 230 269 339 333 332 335 17 89 99 48 50 142 102 142 345 112 106 30 85 73 70 57 16 326 301 10 39
308 312 307 283 258 272 278 278 260 224 278 299 304 282 228 216 214 207 212 314 353 352 318 19 47 55 45 45 60 16 82 104 46 134 114 97 77 80 108 302 302 360 103 78
304 305 304 291 265 275 290 110 71 189 255 269 278 305 245 227 197 208 190 181 1 356 298 289 122 70 92 70 80 41 83 76 92 106 97 110 112 221 72 314 311 130 90 88
298 296 296 284 261 239 258 248 187 231 218 259 275 297 291 214 185 189 188 167 222 262 321 354 85 62 64 40 98 153 111 100 86 94 149 214 293 96 56 327 151 98 87 101
294 287 284 263 273 247 261 254 281 239 216 249 277 330 345 240 158 190 190 185 197 228 276 304 81 87 71 152 124 96 90 76 75 110 198 344 216 114 35 337 128 109 79 43
292 284 266 177 246 256 234 246 268 227 230 301 269 146 204 228 205 184 180 164 157 184 176 264 219 167 173 208 120 119 110 101 131 83 300 303 33 197 141 136 130 147 118 126
280 227 138 192 226 252 288 242 212 216 218 231 251 215 269 332 220 146 157 164 163 181 195 215 201 244 153 149 144 150 144 139 134 209 60 115 54 50 42 50 63 118 158 125
116 272 237 225 278 247 236 248 217 196 220 207 222 187 251 25 317 155 179 186 181 185 199 166 191 173 143 144 154 158 153 140 93 99 95 110 162 86 86 90 99 95 138 167
329 294 135 116 265 259 252 208 202 213 233 200 182 161 146 31 339 317 12 231 206 208 145 164 194 191 154 152 147 147 137 129 117 110 109 113 125 88 86 90 108 115 156 167
343 335 267 194 200 246 225 186 197 214 227 191 168 114 150 117 221 224 30 338 53 299 150 177 117 141 148 145 144 120 128 125 123 101 95 96 95 94 97 108 109 111 112 110
262 211 249 241 226 235 246 316 301 246 259 239 175 132 155 114 356 14 35 336 272 283 177 126 144 154 150 145 131 136 115 113 112 108 99 101 105 105 107 109 115 115 111 112
305 256 245 220 263 302 290 287 286 316 1 17 293 135 172 109 107 191 282 218 31 299 36 134 134 141 137 152 118 118 117 119 111 110 117 117 115 110 108 111 111 109 111 109
248 253 260 275 276 298 336 355 349 353 14 22 15 22 87 105 119 121 190 253 115 344 114 121 131 134 135 133 134 124 120 114 117 116 118 121 118 113 110 109 100 97 98 101
216 245 265 275 281 293 314 332 339 5 47 65 311 307 68 129 78 158 202 212 195 99 116 123 128 131 122 126 124 121 125 132 139 140 127 115 110 104 102 100 94 90 90 90